Location: Gaast
(52.9002°N, 5.8891°E)
Time: 06:19:40
(UTC+00:00)

Cosmos 1833 Rocket - Pass Details

Date: 18 November 2025
Orbit: 829 x 840 km, 71.0° (Epoch: 11 December)

Event Time Altitude Azimuth Distance (km) Brightness Sun altitude
Rises 16:20:55 0° 326° (NNW) 3,407 6.0 -6.6°
Reaches altitude 10° 16:23:24 10° 323° (NW) 2,468 5.3 -7.0°
Maximum altitude 16:28:57 59° 246° (WSW) 972 3.5 -7.8°
Drops below altitude 10° 16:34:27 10° 168° (SSE) 2,451 5.2 -8.5°
Sets 16:36:55 0° 165° (SSE) 3,381 5.9 -8.9°
